| time (UTC) | temp F | wind direction | speed knots | gust knots | rain 1hr in | rain 24hr in | rain mn in | humidity % | barometer mb |
| 20260504040022 | 65 | 309 | 6.1 | 14.8 | 0.00 | 0.00 | 0.00 | 37 | 998.3 |
| 20260504034509 | 65 | 261 | 6.1 | 12.2 | 0.00 | 0.00 | 0.00 | 39 | 998.4 |
| 20260504033006 | 65 | 278 | 4.3 | 10.4 | 0.00 | 0.00 | 0.00 | 39 | 998.6 |
| 20260504031505 | 66 | 257 | 4.3 | 10.4 | 0.00 | 0.00 | 0.00 | 39 | 998.8 |
| 20260504030003 | 66 | 253 | 5.2 | 11.3 | 0.00 | 0.00 | 0.00 | 38 | 999.1 |
| 20260504024501 | 67 | 250 | 5.2 | 11.3 | 0.00 | 0.00 | 0.00 | 37 | 999.4 |
| 20260504023102 | 67 | 240 | 3.5 | 9.6 | 0.00 | 0.00 | 0.00 | 37 | 999.8 |
| 20260504021558 | 68 | 279 | 1.7 | 9.6 | 0.00 | 0.00 | 0.00 | 36 | 999.8 |
| 20260504020056 | 69 | 263 | 6.1 | 13.0 | 0.00 | 0.00 | 0.00 | 34 | 999.9 |
| 20260504014605 | 70 | 285 | 5.2 | 15.6 | 0.00 | 0.00 | 0.00 | 33 | 999.8 |
| 20260504013100 | 71 | 257 | 7.0 | 17.4 | 0.00 | 0.00 | 0.00 | 32 | 1000.0 |
| 20260504011552 | 72 | 250 | 6.1 | 13.9 | 0.00 | 0.00 | 0.00 | 31 | 1000.2 |
| 20260504010054 | 72 | 285 | 3.5 | 10.4 | 0.00 | 0.00 | 0.00 | 30 | 1000.6 |
| 20260504004552 | 73 | 293 | 6.1 | 12.2 | 0.00 | 0.00 | 0.00 | 28 | 1000.8 |
| 20260504003055 | 73 | 269 | 2.6 | 11.3 | 0.00 | 0.00 | 0.00 | 28 | 1001.3 |
| 20260504001600 | 73 | 267 | 4.3 | 13.0 | 0.00 | 0.00 | 0.00 | 28 | 1001.6 |
| 20260504000040 | 73 | 232 | 4.3 | 13.9 | 0.00 | 0.00 | 0.00 | 28 | 1001.9 |
| 20260503234538 | 73 | 266 | 6.1 | 15.6 | 0.00 | 0.00 | 0.00 | 27 | 1002.3 |
| 20260503233037 | 73 | 272 | 5.2 | 13.9 | 0.00 | 0.00 | 0.00 | 28 | 1002.8 |
| 20260503231534 | 73 | 303 | 7.0 | 13.9 | 0.00 | 0.00 | 0.00 | 27 | 1002.9 |
| 20260503230034 | 75 | 311 | 3.5 | 15.6 | 0.00 | 0.00 | 0.00 | 27 | 1003.0 |
| 20260503224532 | 75 | 292 | 7.0 | 15.6 | 0.00 | 0.00 | 0.00 | 25 | 1003.2 |
| 20260503223030 | 75 | 229 | 8.7 | 22.6 | 0.00 | 0.00 | 0.00 | 25 | 1003.5 |
| 20260503221529 | 75 | 236 | 8.7 | 18.2 | 0.00 | 0.00 | 0.00 | 26 | 1003.6 |
| 20260503220027 | 75 | 313 | 6.1 | 19.1 | 0.00 | 0.00 | 0.00 | 27 | 1003.8 |
| 20260503214524 | 75 | 304 | 6.1 | 15.6 | 0.00 | 0.00 | 0.00 | 26 | 1004.1 |
| 20260503213022 | 75 | 246 | 5.2 | 18.2 | 0.00 | 0.00 | 0.00 | 29 | 1004.4 |
| 20260503211520 | 75 | 286 | 7.0 | 20.9 | 0.00 | 0.00 | 0.00 | 27 | 1004.9 |
| 20260503210017 | 75 | 275 | 5.2 | 15.6 | 0.00 | 0.00 | 0.00 | 27 | 1005.4 |
| 20260503204519 | 74 | 291 | 4.3 | 14.8 | 0.00 | 0.00 | 0.00 | 28 | 1005.8 |
| 20260503203014 | 74 | 271 | 7.8 | 18.2 | 0.00 | 0.00 | 0.00 | 26 | 1006.2 |
| 20260503201507 | 73 | 336 | 7.0 | 17.4 | 0.00 | 0.00 | 0.00 | 29 | 1006.7 |
| 20260503200008 | 73 | 306 | 6.1 | 13.0 | 0.00 | 0.00 | 0.00 | 27 | 1007.2 |
| 20260503194502 | 72 | 276 | 8.7 | 16.5 | 0.00 | 0.00 | 0.00 | 28 | 1007.3 |
| 20260503193117 | 72 | 279 | 4.3 | 14.8 | 0.00 | 0.00 | 0.00 | 29 | 1007.6 |
| 20260503191605 | 72 | 297 | 7.0 | 18.2 | 0.00 | 0.00 | 0.00 | 29 | 1008.0 |
| 20260503190054 | 71 | 327 | 5.2 | 15.6 | 0.00 | 0.00 | 0.00 | 32 | 1008.4 |
| 20260503184551 | 70 | 269 | 4.3 | 13.0 | 0.00 | 0.00 | 0.00 | 32 | 1009.0 |
| 20260503183107 | 70 | 306 | 7.8 | 13.9 | 0.00 | 0.00 | 0.00 | 31 | 1009.3 |
| 20260503181613 | 68 | 259 | 2.6 | 9.6 | 0.00 | 0.00 | 0.00 | 36 | 1009.9 |
| 20260503180043 | 68 | 250 | 9.6 | 14.8 | 0.00 | 0.00 | 0.00 | 33 | 1010.2 |
| 20260503174541 | 67 | 324 | 5.2 | 14.8 | 0.00 | 0.00 | 0.00 | 35 | 1010.6 |
| 20260503173036 | 67 | 265 | 4.3 | 13.9 | 0.00 | 0.00 | 0.00 | 34 | 1011.0 |
| 20260503171533 | 66 | 238 | 3.5 | 10.4 | 0.00 | 0.00 | 0.00 | 35 | 1011.4 |
| 20260503110146 | 38 | 294 | 0.0 | 0.0 | 0.00 | 0.00 | 0.00 | 69 | 1014.2 |
| 20260503081520 | 44 | 332 | 2.6 | 4.3 | 0.00 | 0.00 | 0.00 | 61 | 1014.0 |
| 20260503071512 | 46 | 336 | 3.5 | 7.8 | 0.00 | 0.00 | 0.00 | 61 | 1014.0 |
| 20260503060119 | 51 | 360 | 5.2 | 10.4 | 0.00 | 0.00 | 0.00 | 54 | 1013.5 |
| 20260503054559 | 50 | 343 | 3.5 | 8.7 | 0.00 | 0.00 | 0.00 | 59 | 1013.4 |
| 20260503053050 | 51 | 331 | 3.5 | 8.7 | 0.00 | 0.00 | 0.00 | 60 | 1013.5 |
| 20260503051549 | 52 | 355 | 3.5 | 9.6 | 0.00 | 0.00 | 0.00 | 60 | 1013.3 |
| 20260503050045 | 53 | 341 | 4.3 | 8.7 | 0.00 | 0.00 | 0.00 | 60 | 1013.1 |
| 20260503044544 | 53 | 13 | 3.5 | 8.7 | 0.00 | 0.00 | 0.00 | 61 | 1013.2 |
| 20260503043045 | 55 | 11 | 3.5 | 8.7 | 0.00 | 0.00 | 0.00 | 59 | 1012.9 |
| 20260503041542 | 56 | 347 | 4.3 | 10.4 | 0.00 | 0.00 | 0.00 | 58 | 1012.7 |